Terminal Aerodrome Forecast
Issued by NWS Boston, MA

Home | Current Version | Previous Version | Text Only | Print | Product List | Glossary On
Versions: 1 2 3 4 5 6 7 8 9 10 11 12 13 14 15 16 17 18 19 20 21 22 23 24 25 26 27 28
000
FTUS41 KBOX 232335
TAFORH
TAF
KORH 232335Z 2400/2424 31018G35KT 5SM -TSRA BR BKN070CB
     FM240015 32008KT 6SM -SHRA BKN070
     FM240100 31008KT P6SM SCT100=

USA.gov is the U.S. government's official web portal to all federal, state and local government web resources and services.